• In Lithuania
  • List of Countries
  • For 7 days
  • Water Temperature
  • Satellite Maps
  • Weather Map
  • Weather Widgets
  • user-avatar
    Login

    Hourly Weather Faizabad

    Today, 18 June, Monday

    Time Temperature Precipitation Wind Pressure Humidity
    00:00 +39°C° 0 mm 2 mps 738 mmHg 37%
    01:00 +39°C° 0 mm 2 mps 738 mmHg 38%
    02:00 +39°C° 0 mm 2 mps 738 mmHg 38%
    03:00 +38°C° 0 mm 2 mps 738 mmHg 39%
    04:00 +38°C° 0 mm 2 mps 738 mmHg 40%
    05:00 +37°C° 0 mm 4 mps 738 mmHg 42%
    06:00 +38°C° 0 mm 4 mps 739 mmHg 39%
    07:00 +41°C° 0 mm 4 mps 739 mmHg 35%
    08:00 +42°C° 0 mm 4 mps 739 mmHg 32%
    09:00 +44°C° 0 mm 4 mps 739 mmHg 29%
    10:00 +46°C° 0 mm 5 mps 739 mmHg 25%
    11:00 +48°C° 0 mm 6 mps 739 mmHg 22%
    12:00 +48°C° 0 mm 5 mps 739 mmHg 21%
    13:00 +48°C° 0 mm 5 mps 738 mmHg 20%
    14:00 +48°C° 0 mm 5 mps 738 mmHg 19%
    15:00 +48°C° 0 mm 5 mps 737 mmHg 19%
    16:00 +48°C° 0 mm 5 mps 737 mmHg 19%
    17:00 +47°C° 0 mm 5 mps 736 mmHg 18%
    18:00 +47°C° 0 mm 4 mps 736 mmHg 20%
    19:00 +45°C° 0 mm 3 mps 736 mmHg 21%
    20:00 +44°C° 0 mm 3 mps 736 mmHg 23%
    21:00 +43°C° 0 mm 3 mps 737 mmHg 24%
    22:00 +43°C° 0 mm 3 mps 737 mmHg 25%
    23:00 +42°C° 0 mm 3 mps 737 mmHg 26%

    Tomorrow, 19 June, Tuesday

    Time Temperature Precipitation Wind Pressure Humidity
    00:00 +42°C° 0 mm 3 mps 737 mmHg 27%
    01:00 +40°C° 0 mm 3 mps 737 mmHg 28%
    02:00 +40°C° 0 mm 2 mps 737 mmHg 29%
    03:00 +39°C° 0 mm 2 mps 737 mmHg 30%
    04:00 +39°C° 0 mm 2 mps 737 mmHg 32%
    05:00 +38°C° 0 mm 2 mps 737 mmHg 33%
    06:00 +39°C° 0 mm 2 mps 738 mmHg 33%
    07:00 +40°C° 0 mm 3 mps 738 mmHg 32%
    08:00 +42°C° 0 mm 4 mps 739 mmHg 31%
    09:00 +44°C° 0 mm 4 mps 739 mmHg 27%
    10:00 +45°C° 0 mm 3 mps 739 mmHg 23%
    11:00 +47°C° 0 mm 3 mps 739 mmHg 19%
    12:00 +47°C° 0 mm 3 mps 738 mmHg 19%
    13:00 +47°C° 0 mm 3 mps 738 mmHg 18%
    14:00 +47°C° 0 mm 3 mps 737 mmHg 18%
    15:00 +47°C° 0 mm 3 mps 737 mmHg 17%
    16:00 +48°C° 0 mm 4 mps 737 mmHg 17%
    17:00 +48°C° 0 mm 4 mps 736 mmHg 17%
    18:00 +47°C° 0 mm 4 mps 736 mmHg 19%
    19:00 +45°C° 0 mm 3 mps 737 mmHg 20%
    20:00 +44°C° 0 mm 3 mps 737 mmHg 22%
    21:00 +43°C° 0 mm 3 mps 737 mmHg 23%
    22:00 +43°C° 0 mm 3 mps 737 mmHg 24%
    23:00 +42°C° 0 mm 3 mps 737 mmHg 25%

    Day after tomorrow, 20 June, Wednesday

    Time Temperature Precipitation Wind Pressure Humidity
    00:00 +42°C° 0 mm 3 mps 737 mmHg 26%
    01:00 +42°C° 0 mm 3 mps 737 mmHg 27%
    02:00 +41°C° 0 mm 4 mps 737 mmHg 28%
    03:00 +40°C° 0 mm 3 mps 737 mmHg 29%
    04:00 +39°C° 0 mm 3 mps 737 mmHg 31%
    05:00 +38°C° 0 mm 2 mps 737 mmHg 33%
    06:00 +40°C° 0 mm 3 mps 738 mmHg 30%
    07:00 +42°C° 0 mm 3 mps 738 mmHg 27%
    08:00 +44°C° 0 mm 3 mps 739 mmHg 24%
    09:00 +45°C° 0 mm 3 mps 739 mmHg 22%
    10:00 +46°C° 0 mm 3 mps 739 mmHg 21%
    11:00 +48°C° 0 mm 3 mps 739 mmHg 19%
    12:00 +48°C° 0 mm 3 mps 739 mmHg 18%
    13:00 +48°C° 0 mm 3 mps 738 mmHg 18%
    14:00 +47°C° 0 mm 3 mps 738 mmHg 18%
    15:00 +47°C° 0 mm 3 mps 737 mmHg 18%
    16:00 +48°C° 0 mm 3 mps 737 mmHg 18%
    17:00 +48°C° 0 mm 3 mps 737 mmHg 18%
    18:00 +47°C° 0 mm 3 mps 737 mmHg 19%
    19:00 +46°C° 0 mm 3 mps 737 mmHg 21%
    20:00 +45°C° 0 mm 2 mps 737 mmHg 22%
    21:00 +43°C° 0 mm 2 mps 737 mmHg 22%
    22:00 +43°C° 0 mm 2 mps 737 mmHg 23%
    23:00 +42°C° 0 mm 2 mps 737 mmHg 24%

    21 June, Thursday

    Time Temperature Precipitation Wind Pressure Humidity
    00:00 +42°C° 0 mm 2 mps 737 mmHg 24%
    01:00 +42°C° 0 mm 2 mps 737 mmHg 25%
    02:00 +41°C° 0 mm 2 mps 736 mmHg 25%
    03:00 +41°C° 0 mm 2 mps 737 mmHg 28%
    04:00 +40°C° 0 mm 2 mps 737 mmHg 31%
    05:00 +40°C° 0 mm 2 mps 737 mmHg 33%
    06:00 +42°C° 0 mm 3 mps 737 mmHg 34%
    07:00 +42°C° 0 mm 3 mps 738 mmHg 36%
    08:00 +43°C° 0 mm 4 mps 739 mmHg 37%
    09:00 +44°C° 0 mm 3 mps 738 mmHg 32%
    10:00 +46°C° 0 mm 3 mps 738 mmHg 28%
    11:00 +48°C° 0 mm 2 mps 738 mmHg 24%
    12:00 +48°C° 0 mm 2 mps 738 mmHg 22%
    13:00 +49°C° 0 mm 2 mps 737 mmHg 20%
    14:00 +48°C° 0 mm 1 mps 737 mmHg 18%
    15:00 +49°C° 0 mm 2 mps 736 mmHg 18%
    16:00 +49°C° 0 mm 2 mps 736 mmHg 17%
    17:00 +49°C° 0 mm 2 mps 735 mmHg 17%
    18:00 +48°C° 0 mm 2 mps 736 mmHg 18%
    19:00 +47°C° 0 mm 2 mps 736 mmHg 19%
    20:00 +46°C° 0 mm 2 mps 736 mmHg 20%
    21:00 +45°C° 0 mm 3 mps 736 mmHg 23%
    22:00 +44°C° 0 mm 3 mps 736 mmHg 27%
    23:00 +43°C° 0 mm 4 mps 736 mmHg 30%

    22 June, Friday

    Time Temperature Precipitation Wind Pressure Humidity
    00:00 +42°C° 0 mm 5 mps 736 mmHg 35%
    01:00 +41°C° 0 mm 5 mps 736 mmHg 41%
    02:00 +40°C° 0 mm 6 mps 736 mmHg 46%
    03:00 +39°C° 0 mm 6 mps 736 mmHg 50%
    04:00 +38°C° 0 mm 7 mps 736 mmHg 54%
    05:00 +36°C° 0 mm 7 mps 736 mmHg 58%
    06:00 +38°C° 0 mm 7 mps 737 mmHg 56%
    07:00 +39°C° 0 mm 7 mps 737 mmHg 53%
    08:00 +40°C° 0 mm 7 mps 738 mmHg 51%
    09:00 +41°C° 0 mm 6 mps 738 mmHg 46%
    10:00 +44°C° 0 mm 6 mps 738 mmHg 41%
    11:00 +46°C° 0 mm 5 mps 738 mmHg 36%
    12:00 +47°C° 0 mm 4 mps 737 mmHg 32%
    13:00 +48°C° 0 mm 4 mps 736 mmHg 29%
    14:00 +48°C° 0 mm 3 mps 736 mmHg 25%
    15:00 +48°C° 0 mm 3 mps 735 mmHg 25%
    16:00 +48°C° 0 mm 3 mps 735 mmHg 24%
    17:00 +49°C° 0 mm 4 mps 735 mmHg 24%
    18:00 +47°C° 0 mm 5 mps 735 mmHg 28%
    19:00 +46°C° 0 mm 6 mps 735 mmHg 32%
    20:00 +44°C° 0 mm 7 mps 736 mmHg 36%
    21:00 +42°C° 0 mm 6 mps 736 mmHg 39%
    22:00 +41°C° 0 mm 6 mps 736 mmHg 42%
    23:00 +40°C° 0 mm 6 mps 736 mmHg 45%

    23 June, Saturday

    Time Temperature Precipitation Wind Pressure Humidity
    00:00 +40°C° 0 mm 6 mps 736 mmHg 48%
    01:00 +39°C° 0 mm 6 mps 736 mmHg 50%
    02:00 +39°C° 0 mm 5 mps 736 mmHg 53%
    03:00 +38°C° 0 mm 6 mps 736 mmHg 54%
    04:00 +36°C° 0 mm 6 mps 736 mmHg 55%
    05:00 +36°C° 0 mm 6 mps 736 mmHg 56%
    06:00 +36°C° 0 mm 6 mps 737 mmHg 55%
    07:00 +36°C° 0 mm 6 mps 737 mmHg 55%
    08:00 +38°C° 0 mm 6 mps 737 mmHg 54%
    09:00 +39°C° 0 mm 5 mps 737 mmHg 50%
    10:00 +41°C° 0 mm 5 mps 737 mmHg 46%
    11:00 +42°C° 0 mm 4 mps 737 mmHg 42%
    12:00 +43°C° 0 mm 3 mps 737 mmHg 38%
    13:00 +45°C° 0 mm 2 mps 736 mmHg 34%
    14:00 +45°C° 0 mm 1 mps 736 mmHg 30%
    15:00 +46°C° 0 mm 2 mps 736 mmHg 29%
    16:00 +46°C° 0 mm 2 mps 735 mmHg 28%
    17:00 +46°C° 0 mm 3 mps 735 mmHg 27%
    18:00 +45°C° 0 mm 4 mps 735 mmHg 32%
    19:00 +43°C° 0 mm 5 mps 735 mmHg 37%
    20:00 +42°C° 0 mm 6 mps 735 mmHg 42%
    21:00 +41°C° 0 mm 6 mps 735 mmHg 46%
    22:00 +40°C° 0 mm 6 mps 735 mmHg 49%
    23:00 +39°C° 0 mm 6 mps 736 mmHg 52%
    Show more